Terminal Aerodrome Forecast
Issued by NWS

Home | Current Version | Previous Version | Text Only | Print | Product List | Glossary On
Versions: 1 2 3 4 5 6 7 8 9 10 11 12 13 14 15 16 17 18 19 20 21
000
FTUS43 KAPX 251120
TAFTVC
TAF
KTVC 251120Z 2512/2612 26005KT P6SM SCT025 BKN070
     FM252000 31007KT P6SM BKN040
     FM252200 31006KT P6SM BKN070
     FM260400 00000KT P6SM OVC070
     FM260500 00000KT P6SM OVC045
     FM260800 VRB03KT P6SM OVC015
     FM261000 VRB03KT 6SM -SHRA OVC008=

USA.gov is the U.S. government's official web portal to all federal, state and local government web resources and services.